Terminal Aerodrome Forecast
Issued by NWS

Home | Current Version | Previous Version | Text Only | Print | Product List | Glossary On
Versions: 1 2 3 4 5 6 7 8 9 10 11 12 13 14 15 16 17 18
328
FTUS42 TJSJ 290215 AAB
TAFISX
TAF AMD
TISX 290215Z 2902/2924 08008KT P6SM VCSH FEW020 SCT040 OVC110
      TEMPO 2902/2904 VRB05KT SHRA SCT015 BKN020
     FM291330 11012KT P6SM SCT030 BKN060
     FM292330 08008KT P6SM SCT020=

USA.gov is the U.S. government's official web portal to all federal, state and local government web resources and services.